Regional Weather Roundup
Issued by NWS Cleveland, OH

Home | Current Version | Previous Version | Text Only | Print | Product List | Glossary On
Versions: 1 2 3 4 5 6 7 8 9 10 11 12 13 14 15 16 17 18 19 20 21 22 23 24 25 26 27 28 29 30 31 32 33 34 35 36 37 38 39 40 41 42 43 44 45 46 47 48 49 50
000
ASUS41 KCLE 311210
RWRCLE
OHIO REGIONAL WEATHER ROUNDUP
NATIONAL WEATHER SERVICE WILMINGTON, OH
800 AM EDT FRI JUL 31 2015

NOTE: "FAIR" INDICATES FEW OR NO CLOUDS BELOW 12,000 FEET WITH NO
SIGNIFICANT WEATHER AND/OR OBSTRUCTIONS TO VISIBILITY.

OHZ001>008-015>018-024>027-034-035-043-044-311300-
   NORTHWEST OHIO

CITY           SKY/WX    TMP DP  RH WIND       PRES   REMARKS
DEFIANCE       SUNNY     67  61  81 CALM      30.00R
FINDLAY        SUNNY     69  61  75 W8        30.00R
TOLEDO EXPRESS SUNNY     66  59  78 W5        29.98R
TOLEDO EXEC    SUNNY     68  59  73 W5        29.98R
LIMA           SUNNY     67  62  84 W6        30.02R
$$

OHZ009>014-019>023-028>033-038-089-311300-
   NORTHEAST OHIO

CITY           SKY/WX    TMP DP  RH WIND       PRES   REMARKS
CLE-HOPKINS    SUNNY     69  57  65 SW7       29.99S
CLE-LAKEFRONT  SUNNY     73  58  59 SW10      29.95S
CUY CO. ARPT   SUNNY     72  59  64 SW9       29.97S
LORAIN-ELYRIA  SUNNY     68  58  70 W5        29.99R
ASHTABULA      SUNNY     69  65  86 SW6       29.97R
AKRON-CANTON   SUNNY     67  58  72 SW5       30.01R
WOOSTER        SUNNY     66  61  84 CALM      30.01S
MANSFIELD      SUNNY     70  57  63 SW7       30.02R
YOUNGSTOWN     SUNNY     67  59  75 SW3       29.99R
$$

OHZ042-051>053-060>062-070>072-077>081-311300-
  SOUTHWEST OHIO

CITY           SKY/WX    TMP DP  RH WIND       PRES   REMARKS
CINC-COVINGTON SUNNY     66  61  85 CALM      30.07R
CINC-LUNKEN    SUNNY     65  65 100 CALM      30.07R
HAMILTON       SUNNY     67  63  87 CALM      30.07R
DAYTON         SUNNY     70  63  78 W10       30.06R
WRIGHT-PAT AFB SUNNY     67  62  83 S3        30.04R
DAYTON GENERAL SUNNY     66  62  87 S5        30.06R
WILMINGTON     SUNNY     68  62  81 SW5       30.06R
$$

OHZ036-037-039>041-045>050-054>059-063>069-073>076-082>088-311300-
  CENTRAL AND SOUTHEAST OHIO

CITY           SKY/WX    TMP DP  RH WIND       PRES   REMARKS
COLUMBUS       SUNNY     65  60  84 CALM      30.03R
OSU AIRPORT    SUNNY     67  61  81 W8        30.03R
BOLTON FIELD   SUNNY     66  61  82 W6        30.04R
RICKENBACK AFB SUNNY     63  59  86 S5        30.04R
NEWARK         SUNNY     65  61  87 S5        30.03R
MARION         SUNNY     68  58  70 W6        30.02R
LANCASTER      SUNNY     66  62  87 CALM      30.04R
ZANESVILLE     SUNNY     63  58  83 SW3       30.03R
NEW PHILLY     SUNNY     63  62  97 SE3       30.03R
$$



USA.gov is the U.S. government's official web portal to all federal, state and local government web resources and services.